Wetterdaten von Putzkau
Wetterdaten: aktuell Sonntag, 04.12.2022 08:30
Datum Zeit Temp. A. Feuchte A. Luftdruck Regen Wind Windben
04.12.2022 08:30 0,8 C 94 % 1018,8 hPa 0,0 l/m 0,0 km/h (0 Bft) 0,0 km/h (0 Bft)
04.12.2022 07:33 0,6 C 94 % 1018,6 hPa 0,0 l/m 0,0 km/h (0 Bft) 0,0 km/h (0 Bft)
04.12.2022 06:33 0,7 C 93 % 1018,1 hPa 0,0 l/m 0,0 km/h (0 Bft) 0,0 km/h (0 Bft)
04.12.2022 05:33 0,4 C 93 % 1018,4 hPa 0,0 l/m 0,0 km/h (0 Bft) 0,0 km/h (0 Bft)
04.12.2022 04:33 0,4 C 93 % 1018,2 hPa 0,0 l/m 0,0 km/h (0 Bft) 0,0 km/h (0 Bft)
04.12.2022 03:33 0,3 C 93 % 1018,4 hPa 0,0 l/m 0,0 km/h (0 Bft) 0,0 km/h (0 Bft)
04.12.2022 02:33 0,3 C 93 % 1018,9 hPa 0,0 l/m 0,0 km/h (0 Bft) 0,0 km/h (0 Bft)
04.12.2022 01:33 0,4 C 93 % 1019,0 hPa 0,0 l/m 0,0 km/h (0 Bft) 0,0 km/h (0 Bft)
04.12.2022 00:33 0,2 C 93 % 1019,1 hPa 0,0 l/m 0,0 km/h (0 Bft) 0,0 km/h (0 Bft)
03.12.2022 23:33 0,1 C 93 % 1020,0 hPa 0,0 l/m 0,0 km/h (0 Bft) 0,0 km/h (0 Bft)
03.12.2022 22:33 0,1 C 93 % 1020,1 hPa 0,0 l/m 0,2 km/h (0 Bft) 1,6 km/h (1 Bft)
03.12.2022 21:33 0,2 C 93 % 1020,6 hPa 0,0 l/m 0,2 km/h (0 Bft) 1,6 km/h (1 Bft)
03.12.2022 20:33 0,1 C 92 % 1020,4 hPa 0,0 l/m 0,0 km/h (0 Bft) 0,0 km/h (0 Bft)
03.12.2022 19:33 0,1 C 92 % 1020,5 hPa 0,0 l/m 0,0 km/h (0 Bft) 0,0 km/h (0 Bft)
03.12.2022 18:33 0,0 C 92 % 1020,8 hPa 0,0 l/m 0,0 km/h (0 Bft) 0,0 km/h (0 Bft)
03.12.2022 17:33 -0,2 C 92 % 1020,6 hPa 0,0 l/m 0,0 km/h (0 Bft) 0,0 km/h (0 Bft)
03.12.2022 16:33 -0,3 C 92 % 1021,1 hPa 0,0 l/m 0,0 km/h (0 Bft) 0,0 km/h (0 Bft)
03.12.2022 15:33 -0,3 C 92 % 1020,6 hPa 0,0 l/m 0,0 km/h (0 Bft) 0,0 km/h (0 Bft)
03.12.2022 14:33 0,0 C 92 % 1020,8 hPa 0,0 l/m 0,0 km/h (0 Bft) 0,0 km/h (0 Bft)
03.12.2022 13:33 0,1 C 92 % 1021,2 hPa 0,0 l/m 0,0 km/h (0 Bft) 0,0 km/h (0 Bft)
03.12.2022 12:33 0,3 C 92 % 1021,2 hPa 0,0 l/m 0,0 km/h (0 Bft) 0,0 km/h (0 Bft)
03.12.2022 11:33 -0,3 C 92 % 1021,9 hPa 0,0 l/m 0,0 km/h (0 Bft) 0,0 km/h (0 Bft)
03.12.2022 10:33 -0,8 C 92 % 1021,8 hPa 0,0 l/m 0,0 km/h (0 Bft) 0,0 km/h (0 Bft)
03.12.2022 09:33 -1,0 C 92 % 1021,6 hPa 0,0 l/m 0,0 km/h (0 Bft) 0,0 km/h (0 Bft)
03.12.2022 09:03 -1,4 C 92 % 1022,1 hPa 0,0 l/m 0,0 km/h (0 Bft) 0,0 km/h (0 Bft)
_ Min-Zeit 09:03 20:33 06:33 - 08:30 08:30
Minimum _ -1,4 C 92 % 1018,1 hPa - 0,0 km/h (0 Bft) 0,0 km/h (0 Bft)
_ Max-Zeit 08:30 08:30 09:03 08:30 01:03 22:33
Maximum _ 0,8 C 94 % 1022,1 hPa 0,0 l/m 0,3 km/h
SO (0 Bft)
1,6 km/h
SO (1 Bft)
Durchschnitt _ -0,0 C 93 % 1020,2 hPa #0,0 l/m 0,0 km/h (0 Bft) 0,1 km/h (0 Bft)
© 2022 Michael Jger webmaster [at] putzkau.de